Location: Warszawa
(52.2500°N, 21.0000°E)
Time: 11:31:38
(UTC+01:00)

Vanguard 1 Rocket - All Passes

Search period start: 28 January 2023 00:00
Search period end: 07 February 2023 00:00
Orbit: 650 x 4225 km, 34.3° (Epoch: 27 January)

Date Brightness Start Highest point End Pass type
(mag) Time Alt. Az. Time Alt. Az. Time Alt. Az.
28 Jan - 11:36:24 10° S 11:46:04 22° SE 11:59:54 10° E daylight
28 Jan - 13:57:00 10° SW 14:11:36 42° SSE 14:33:41 10° ESE daylight
28 Jan - 16:21:46 10° WSW 16:40:14 46° S 17:03:45 10° SE visible
28 Jan - 18:49:55 10° W 19:09:05 32° SW 19:28:54 10° SSE visible
28 Jan - 21:28:16 10° WSW 21:35:10 12° WSW 21:41:52 10° SW visible
29 Jan - 10:30:31 10° SE 10:35:15 12° ESE 10:40:54 10° ESE daylight
29 Jan - 12:46:53 10° SSW 12:59:07 35° SSE 13:18:13 10° E daylight
29 Jan - 15:10:06 10° WSW 15:26:29 46° S 15:49:55 10° ESE daylight
29 Jan - 17:36:31 10° W 17:55:33 39° SSW 18:17:34 10° SE visible
29 Jan - 20:07:59 10° W 20:23:04 20° SW 20:37:57 10° S visible
30 Jan - 11:37:44 10° S 11:47:27 25° SE 12:02:04 10° E daylight
30 Jan - 13:59:07 10° SW 14:13:14 43° SSE 14:35:14 10° ESE daylight
30 Jan - 16:24:04 10° WSW 16:41:47 43° SSW 17:04:57 10° SE visible
30 Jan - 18:52:35 10° W 19:10:16 28° SW 19:29:06 10° S visible
31 Jan - 10:30:22 10° SSE 10:36:33 15° SE 10:44:36 10° E daylight
31 Jan - 12:48:50 10° SW 13:00:42 37° SSE 13:19:53 10° E daylight
31 Jan - 15:12:22 10° WSW 15:28:09 45° S 15:51:14 10° ESE daylight
31 Jan - 17:38:59 10° W 17:56:57 35° SSW 18:18:14 10° SSE visible
31 Jan - 20:12:11 10° W 20:24:03 16° SW 20:36:06 10° SSW visible
01 Feb - 11:39:22 10° SSW 11:48:58 28° SE 12:04:02 10° E daylight
01 Feb - 14:01:21 10° SW 14:14:58 43° S 14:36:40 10° ESE daylight
01 Feb - 16:26:29 10° WSW 16:43:22 40° SSW 17:05:54 10° SE visible
01 Feb - 18:55:37 10° W 19:11:28 24° SW 19:28:44 10° S visible
02 Feb - 10:31:13 10° S 10:37:59 18° SE 10:47:25 10° E daylight
02 Feb - 12:50:57 10° SW 13:02:26 38° SSE 13:21:27 10° ESE daylight
02 Feb - 15:14:46 10° WSW 15:29:53 43° S 15:52:23 10° SE daylight
02 Feb - 17:41:40 10° W 17:58:20 31° SSW 18:18:29 10° SSE visible
02 Feb - 20:18:56 10° WSW 20:25:05 11° SW 20:31:20 10° SW visible
03 Feb - 11:41:16 10° SSW 11:50:37 30° SSE 12:05:51 10° E daylight
03 Feb - 14:03:42 10° WSW 14:16:46 42° S 14:37:58 10° ESE daylight
03 Feb - 16:29:01 10° W 16:44:59 36° SSW 17:06:33 10° SE visible
03 Feb - 18:59:16 10° W 19:12:41 19° SW 19:27:28 10° S visible
04 Feb - 10:32:35 10° S 10:39:34 20° SE 10:49:48 10° E daylight
04 Feb - 12:53:13 10° SW 13:04:15 39° SSE 13:22:55 10° ESE daylight
04 Feb - 15:17:15 10° WSW 15:31:39 40° S 15:53:20 10° SE daylight
04 Feb - 17:44:37 10° W 17:59:46 26° SW 18:18:15 10° S visible
05 Feb - 09:27:11 10° SE 09:29:07 11° SE 09:31:13 10° ESE daylight
05 Feb - 11:43:21 10° SSW 11:52:25 32° SSE 12:07:33 10° ESE daylight
05 Feb - 14:06:09 10° WSW 14:18:40 41° S 14:39:08 10° ESE daylight
05 Feb - 16:31:44 10° W 16:46:37 32° SSW 17:06:52 10° SSE visible
05 Feb - 19:04:04 10° WSW 19:13:56 14° SW 19:24:42 10° SSW visible
06 Feb - 10:34:18 10° S 10:41:17 23° SE 10:51:58 10° E daylight
06 Feb - 12:55:36 10° SW 13:06:11 38° S 13:24:18 10° ESE daylight
06 Feb - 15:19:52 10° WSW 15:33:28 36° SSW 15:54:02 10° SE daylight
06 Feb - 17:48:01 10° WSW 18:01:15 21° SW 18:17:19 10° S visible
